contact:dominique.lefevre@mio.osupytheas.fr, maurice.libes@osupytheas.fr, didier.mallarino@osupytheas.fr
Project:EMSO http://www.emso-fr.org/EMSO-France
Depth: 2436.0 m
Title:EMSO Ligure Ouest : Data MII capteur AQUADOPP
Date,Latitude,Longitude,X_East,Y_North,Z_Up,Amplitude_X,Amplitude_Y,Amplitude_Z,Batterie,SoundSpeed,Heading,Pitch,Roll,Pressure,TIS,Speed,Direction
, degrees North, degrees East, m.s-1, m.s-1,m.s-1, 1, 1, 1, Volt, m.s-1, degree, degree, degree, dbar, degree_C, m.s-1, degree
2019-12-26T00:04:03,42.805,6.029,-0.011,0.004,-0.035,102.0,104.0,99.0,13.4,1505.3,326.7,-0.7,1.8,2470.192,13.33,0.011,290.0
2019-12-26T00:07:03,42.805,6.029,-0.022,0.002,-0.008,100.0,106.0,99.0,13.4,1505.3,327.4,-0.7,1.8,2470.166,13.33,0.022,275.2
2019-12-26T00:10:03,42.805,6.029,0.011,0.013,0.0,100.0,109.0,99.0,13.4,1505.4,324.7,-0.7,1.8,2470.159,13.34,0.017,40.2
2019-12-26T00:13:03,42.805,6.029,-0.018,0.012,-0.051,102.0,106.0,97.0,13.4,1505.4,329.0,-0.7,1.8,2470.171,13.34,0.021,303.7
2019-12-26T00:16:03,42.805,6.029,-0.04,0.011,-0.042,102.0,105.0,98.0,13.4,1505.4,324.5,-0.7,1.8,2470.156,13.34,0.041,285.4
2019-12-26T00:19:03,42.805,6.029,0.0,0.003,-0.031,101.0,107.0,98.0,13.4,1505.4,327.5,-0.7,1.8,2470.171,13.34,0.003,0.0
2019-12-26T00:22:03,42.805,6.029,-0.001,0.002,-0.024,101.0,107.0,98.0,13.4,1505.4,327.8,-0.7,1.8,2470.153,13.34,0.002,333.4
2019-12-26T00:25:03,42.805,6.029,-0.013,0.009,-0.051,102.0,105.0,99.0,13.3,1505.4,324.7,-0.7,1.9,2470.143,13.34,0.015,304.7
2019-12-26T00:28:03,42.805,6.029,-0.035,0.018,-0.03,101.0,106.0,99.0,13.4,1505.4,325.6,-0.7,1.8,2470.152,13.34,0.039,297.2
2019-12-26T00:31:03,42.805,6.029,-0.002,0.023,0.01,102.0,107.0,99.0,13.3,1505.4,326.7,-0.7,1.9,2470.151,13.34,0.023,355.0
2019-12-26T00:34:03,42.805,6.029,-0.016,0.014,-0.016,102.0,105.0,99.0,13.4,1505.4,327.1,-0.7,1.8,2470.141,13.34,0.021,311.2
2019-12-26T00:37:03,42.805,6.029,-0.006,0.024,-0.027,101.0,106.0,99.0,13.4,1505.4,327.2,-0.7,1.8,2470.148,13.34,0.024,346.0
2019-12-26T00:43:03,42.805,6.029,-0.006,0.025,-0.004,101.0,105.0,99.0,13.4,1505.3,324.9,-0.7,1.9,2470.188,13.32,0.025,346.5
2019-12-26T00:46:03,42.805,6.029,-0.037,0.019,-0.032,100.0,106.0,99.0,13.3,1505.3,325.6,-0.7,1.8,2470.187,13.33,0.041,297.2
2019-12-26T00:49:03,42.805,6.029,-0.018,0.009,-0.055,101.0,105.0,99.0,13.3,1505.3,325.3,-0.7,1.8,2470.197,13.33,0.02,296.6
2019-12-26T00:52:03,42.805,6.029,-0.007,0.007,-0.002,101.0,107.0,99.0,13.3,1505.4,323.7,-0.7,1.8,2470.128,13.34,0.009,315.0
2019-12-26T00:55:03,42.805,6.029,-0.002,-0.006,-0.042,100.0,106.0,99.0,13.3,1505.4,322.9,-0.7,1.8,2470.194,13.34,0.006,198.4
2019-12-26T00:58:03,42.805,6.029,-0.018,0.028,-0.006,102.0,106.0,99.0,13.3,1505.4,324.2,-0.7,1.8,2470.126,13.34,0.033,327.3
2019-12-26T01:04:03,42.805,6.029,-0.021,0.008,-0.038,104.0,108.0,100.0,13.3,1505.3,326.8,-0.7,1.8,2470.207,13.32,0.022,290.9
2019-12-26T01:07:03,42.805,6.029,-0.006,0.02,-0.038,101.0,106.0,99.0,13.3,1505.3,328.1,-0.7,1.8,2470.21,13.33,0.02,343.3
2019-12-26T01:10:03,42.805,6.029,0.018,0.013,-0.015,101.0,108.0,98.0,13.4,1505.3,326.3,-0.7,1.8,2470.185,13.33,0.022,54.2
2019-12-26T01:13:03,42.805,6.029,0.002,0.009,-0.039,102.0,107.0,99.0,13.4,1505.3,326.7,-0.7,1.9,2470.192,13.33,0.009,12.5
2019-12-26T01:16:03,42.805,6.029,-0.002,0.013,-0.029,100.0,108.0,99.0,13.3,1505.3,324.7,-0.7,1.8,2470.177,13.33,0.013,351.3
2019-12-26T01:19:03,42.805,6.029,-0.023,0.034,0.013,100.0,108.0,99.0,13.4,1505.4,325.6,-0.7,1.8,2470.137,13.34,0.041,325.9
2019-12-26T01:22:03,42.805,6.029,0.01,0.03,-0.015,101.0,107.0,99.0,13.3,1505.4,326.6,-0.7,1.8,2470.151,13.34,0.031,18.4
2019-12-26T01:25:03,42.805,6.029,0.02,0.037,-0.006,100.0,106.0,99.0,13.4,1505.4,326.3,-0.7,1.8,2470.157,13.34,0.042,28.4
2019-12-26T01:28:03,42.805,6.029,0.002,0.022,0.0,101.0,108.0,100.0,13.4,1505.4,323.1,-0.7,1.8,2470.131,13.34,0.022,5.2
2019-12-26T01:31:03,42.805,6.029,0.0,0.02,-0.022,99.0,107.0,100.0,13.4,1505.4,323.9,-0.7,1.8,2470.123,13.34,0.02,0.0
2019-12-26T01:34:03,42.805,6.029,-0.012,0.028,-0.018,101.0,108.0,100.0,13.4,1505.4,325.3,-0.7,1.8,2470.135,13.34,0.03,336.8
2019-12-26T01:37:03,42.805,6.029,0.005,0.005,-0.022,101.0,108.0,100.0,13.4,1505.4,324.9,-0.7,1.8,2470.161,13.34,0.007,45.0
2019-12-26T01:40:03,42.805,6.029,0.003,0.005,0.02,102.0,108.0,100.0,13.4,1505.4,328.4,-0.7,1.8,2470.15,13.34,0.005,31.0
2019-12-26T01:43:03,42.805,6.029,0.004,0.016,-0.033,102.0,108.0,100.0,13.4,1505.4,327.8,-0.7,1.8,2470.19,13.34,0.016,14.0
2019-12-26T01:46:03,42.805,6.029,-0.013,0.017,-0.032,102.0,109.0,99.0,13.4,1505.4,324.7,-0.7,1.8,2470.138,13.34,0.021,322.6
2019-12-26T01:49:03,42.805,6.029,0.0,0.021,-0.015,101.0,108.0,99.0,13.4,1505.4,327.0,-0.7,1.9,2470.119,13.34,0.021,0.0
2019-12-26T01:52:03,42.805,6.029,-0.011,0.013,-0.005,101.0,109.0,99.0,13.4,1505.4,328.5,-0.7,1.8,2470.139,13.34,0.017,319.8
2019-12-26T01:55:03,42.805,6.029,-0.001,0.009,-0.041,101.0,107.0,99.0,13.3,1505.4,328.0,-0.7,1.8,2470.165,13.34,0.009,353.7
2019-12-26T01:58:03,42.805,6.029,0.01,0.009,-0.048,101.0,107.0,99.0,13.4,1505.4,328.7,-0.7,1.8,2470.143,13.34,0.013,48.0
2019-12-26T02:04:03,42.805,6.029,0.014,0.035,0.021,101.0,107.0,99.0,13.4,1505.3,327.9,-0.7,1.8,2470.187,13.32,0.037,21.8
2019-12-26T02:07:03,42.805,6.029,0.01,0.017,0.006,102.0,107.0,101.0,13.3,1505.3,325.5,-0.7,1.8,2470.181,13.33,0.019,30.5
2019-12-26T02:10:03,42.805,6.029,0.008,0.014,-0.026,102.0,106.0,99.0,13.4,1505.3,326.9,-0.7,1.8,2470.176,13.33,0.016,29.7
2019-12-26T02:13:03,42.805,6.029,0.002,0.02,-0.003,103.0,106.0,99.0,13.4,1505.3,324.2,-0.7,1.8,2470.119,13.33,0.02,5.7
2019-12-26T02:16:03,42.805,6.029,0.016,0.015,-0.012,102.0,108.0,100.0,13.4,1505.4,327.0,-0.7,1.8,2470.154,13.34,0.021,46.9
2019-12-26T02:19:03,42.805,6.029,0.024,0.031,0.011,102.0,107.0,99.0,13.3,1505.4,327.3,-0.8,1.8,2470.181,13.34,0.039,37.7
2019-12-26T02:22:03,42.805,6.029,0.012,0.024,-0.009,101.0,109.0,100.0,13.4,1505.4,324.6,-0.7,1.8,2470.185,13.34,0.026,26.6
2019-12-26T02:25:03,42.805,6.029,-0.003,0.025,-0.036,101.0,109.0,98.0,13.4,1505.4,327.2,-0.7,1.8,2470.158,13.34,0.025,353.2
2019-12-26T02:28:03,42.805,6.029,0.012,0.017,0.003,102.0,108.0,101.0,13.3,1505.4,324.4,-0.7,1.8,2470.131,13.34,0.02,35.2
2019-12-26T02:34:03,42.805,6.029,0.025,-0.004,-0.006,102.0,108.0,100.0,13.4,1505.3,326.5,-0.8,1.8,2470.18,13.32,0.025,99.1
2019-12-26T02:37:03,42.805,6.029,0.005,0.005,-0.033,103.0,110.0,99.0,13.4,1505.3,328.0,-0.7,1.8,2470.126,13.32,0.007,45.0
2019-12-26T02:40:03,42.805,6.029,0.028,0.015,-0.006,100.0,110.0,100.0,13.4,1505.3,325.7,-0.7,1.8,2470.181,13.33,0.031,61.8
2019-12-26T02:43:03,42.805,6.029,0.023,0.035,0.025,101.0,108.0,100.0,13.3,1505.3,327.1,-0.7,1.9,2470.162,13.33,0.041,33.3
2019-12-26T02:46:03,42.805,6.029,0.002,0.036,-0.018,101.0,109.0,99.0,13.4,1505.3,325.4,-0.7,1.9,2470.205,13.33,0.036,3.2
2019-12-26T02:49:03,42.805,6.029,-0.009,-0.006,-0.01,101.0,108.0,100.0,13.4,1505.3,325.7,-0.7,1.9,2470.211,13.33,0.01,236.3
2019-12-26T02:52:03,42.805,6.029,-0.004,0.017,-0.016,101.0,110.0,100.0,13.4,1505.3,324.5,-0.7,1.9,2470.177,13.33,0.017,346.8
2019-12-26T02:55:03,42.805,6.029,0.005,0.012,0.0,102.0,109.0,100.0,13.4,1505.3,324.9,-0.7,1.8,2470.177,13.33,0.013,22.6
2019-12-26T02:58:03,42.805,6.029,0.008,-0.005,-0.018,102.0,109.0,100.0,13.4,1505.3,327.3,-0.7,1.8,2470.184,13.33,0.009,122.0
2019-12-26T03:04:03,42.805,6.029,-0.009,0.006,-0.026,101.0,110.0,99.0,13.4,1505.3,325.9,-0.8,1.8,2470.241,13.31,0.01,303.7
2019-12-26T03:07:03,42.805,6.029,0.002,0.023,-0.011,101.0,109.0,98.0,13.4,1505.3,328.2,-0.7,1.8,2470.203,13.32,0.023,5.0
2019-12-26T03:10:03,42.805,6.029,0.005,0.015,0.004,101.0,115.0,99.0,13.4,1505.3,324.2,-0.7,1.9,2470.224,13.32,0.015,18.4
2019-12-26T03:13:03,42.805,6.029,0.005,0.004,-0.023,102.0,109.0,100.0,13.4,1505.3,325.2,-0.7,1.8,2470.236,13.32,0.006,51.3
2019-12-26T03:16:03,42.805,6.029,0.003,0.022,0.004,101.0,109.0,101.0,13.3,1505.3,325.9,-0.8,1.8,2470.213,13.33,0.022,7.8
2019-12-26T03:19:03,42.805,6.029,0.019,0.0,-0.013,101.0,110.0,100.0,13.4,1505.3,327.6,-0.7,1.8,2470.22,13.33,0.019,90.0
2019-12-26T03:22:03,42.805,6.029,0.005,0.009,0.004,102.0,110.0,99.0,13.3,1505.3,324.5,-0.8,1.8,2470.224,13.33,0.01,29.1
2019-12-26T03:25:03,42.805,6.029,0.056,0.022,0.049,101.0,111.0,99.0,13.4,1505.3,326.5,-0.7,1.8,2470.21,13.33,0.06,68.6
2019-12-26T03:28:03,42.805,6.029,-0.008,0.03,0.001,101.0,110.0,100.0,13.4,1505.3,326.3,-0.7,1.9,2470.188,13.33,0.031,345.1
2019-12-26T03:31:03,42.805,6.029,0.038,-0.001,0.013,101.0,110.0,99.0,13.4,1505.3,324.9,-0.7,1.8,2470.253,13.33,0.038,91.5
2019-12-26T03:34:03,42.805,6.029,0.016,0.013,-0.008,102.0,110.0,100.0,13.4,1505.3,324.7,-0.7,1.8,2470.223,13.33,0.02,50.9
2019-12-26T03:37:03,42.805,6.029,0.022,0.023,-0.008,103.0,110.0,99.0,13.4,1505.3,325.3,-0.7,1.8,2470.244,13.33,0.031,43.7
2019-12-26T03:40:03,42.805,6.029,0.041,0.023,0.025,102.0,111.0,99.0,13.4,1505.3,327.5,-0.7,1.8,2470.202,13.33,0.047,60.7
2019-12-26T03:43:03,42.805,6.029,0.018,-0.004,0.008,103.0,110.0,100.0,13.3,1505.3,323.8,-0.7,1.8,2470.212,13.33,0.018,102.5
2019-12-26T03:46:03,42.805,6.029,0.03,0.012,0.024,102.0,109.0,100.0,13.3,1505.3,327.3,-0.7,1.8,2470.238,13.33,0.032,68.2
2019-12-26T03:49:03,42.805,6.029,0.023,0.007,0.036,103.0,110.0,100.0,13.3,1505.3,326.4,-0.7,1.8,2470.193,13.33,0.024,73.1
2019-12-26T03:52:03,42.805,6.029,0.042,0.004,-0.003,102.0,111.0,99.0,13.4,1505.3,325.6,-0.7,1.8,2470.279,13.33,0.042,84.6
2019-12-26T03:55:03,42.805,6.029,0.046,0.003,0.036,101.0,109.0,99.0,13.4,1505.3,326.8,-0.7,1.8,2470.261,13.33,0.046,86.3
2019-12-26T03:58:03,42.805,6.029,0.0,0.022,-0.018,101.0,111.0,100.0,13.4,1505.3,325.4,-0.7,1.8,2470.233,13.33,0.022,0.0
2019-12-26T04:04:03,42.805,6.029,0.039,0.022,0.008,103.0,111.0,99.0,13.4,1505.2,323.5,-0.7,1.8,2470.295,13.3,0.044,60.6
2019-12-26T04:07:03,42.805,6.029,-0.004,0.01,-0.017,101.0,113.0,100.0,13.4,1505.3,323.4,-0.8,1.9,2470.305,13.31,0.01,338.2
2019-12-26T04:10:03,42.805,6.029,0.023,-0.008,0.005,104.0,110.0,99.0,13.4,1505.3,326.9,-0.7,1.8,2470.222,13.32,0.024,109.2
2019-12-26T04:13:03,42.805,6.029,0.022,0.009,-0.008,103.0,110.0,101.0,13.4,1505.3,324.6,-0.7,1.8,2470.251,13.32,0.023,67.8
2019-12-26T04:16:03,42.805,6.029,0.008,0.001,-0.002,103.0,111.0,99.0,13.4,1505.3,324.5,-0.7,1.8,2470.227,13.32,0.008,82.9
2019-12-26T04:19:03,42.805,6.029,0.0,0.021,-0.008,104.0,113.0,99.0,13.4,1505.3,323.6,-0.7,1.8,2470.269,13.32,0.021,0.0
2019-12-26T04:22:03,42.805,6.029,0.019,0.018,0.01,104.0,110.0,98.0,13.3,1505.3,323.7,-0.7,1.8,2470.283,13.32,0.026,46.5
2019-12-26T04:25:03,42.805,6.029,0.029,0.003,0.012,103.0,111.0,99.0,13.4,1505.3,325.4,-0.7,1.8,2470.266,13.32,0.029,84.1
2019-12-26T04:28:03,42.805,6.029,0.031,0.013,-0.017,103.0,112.0,99.0,13.4,1505.3,324.5,-0.7,1.8,2470.263,13.32,0.033,67.3
2019-12-26T04:31:03,42.805,6.029,0.004,0.008,-0.011,103.0,112.0,99.0,13.4,1505.3,327.0,-0.7,1.9,2470.264,13.32,0.008,26.6
2019-12-26T04:34:03,42.805,6.029,0.007,0.011,0.039,103.0,111.0,100.0,13.3,1505.3,326.6,-0.7,1.8,2470.287,13.32,0.013,32.5
2019-12-26T04:37:03,42.805,6.029,0.014,0.017,0.029,104.0,112.0,99.0,13.4,1505.3,325.6,-0.7,1.8,2470.29,13.32,0.022,39.5
2019-12-26T04:40:03,42.805,6.029,0.025,-0.01,0.029,102.0,112.0,99.0,13.4,1505.3,326.0,-0.7,1.8,2470.312,13.32,0.026,111.8
2019-12-26T04:43:03,42.805,6.029,0.015,0.02,0.017,104.0,112.0,100.0,13.4,1505.3,325.7,-0.7,1.9,2470.291,13.32,0.025,36.9
2019-12-26T04:46:03,42.805,6.029,0.009,0.013,0.015,104.0,110.0,99.0,13.4,1505.3,326.0,-0.7,1.8,2470.317,13.32,0.015,34.7
2019-12-26T04:49:03,42.805,6.029,0.013,0.026,0.004,102.0,113.0,100.0,13.4,1505.3,323.7,-0.7,1.8,2470.361,13.32,0.029,26.6
2019-12-26T04:52:03,42.805,6.029,0.028,0.022,0.005,103.0,112.0,100.0,13.3,1505.3,323.7,-0.7,1.9,2470.301,13.32,0.035,51.8
2019-12-26T04:55:03,42.805,6.029,0.02,0.009,0.001,102.0,112.0,100.0,13.4,1505.3,324.4,-0.7,1.8,2470.34,13.32,0.021,65.8
2019-12-26T04:58:03,42.805,6.029,0.039,-0.004,0.007,104.0,113.0,100.0,13.4,1505.3,325.2,-0.7,1.8,2470.339,13.32,0.039,95.9
2019-12-26T05:04:03,42.805,6.029,0.033,0.007,-0.008,103.0,113.0,99.0,13.3,1505.2,327.9,-0.7,1.9,2470.387,13.3,0.033,78.0
2019-12-26T05:07:03,42.805,6.029,-0.008,-0.002,0.022,103.0,113.0,100.0,13.4,1505.3,326.2,-0.7,1.8,2470.346,13.31,0.008,256.0
2019-12-26T05:10:03,42.805,6.029,0.014,-0.003,-0.005,102.0,113.0,99.0,13.4,1505.3,326.3,-0.7,1.8,2470.379,13.32,0.014,102.1
2019-12-26T05:13:03,42.805,6.029,0.028,0.009,-0.005,104.0,110.0,100.0,13.4,1505.3,327.9,-0.7,1.9,2470.336,13.32,0.029,72.2
2019-12-26T05:16:03,42.805,6.029,0.063,0.012,0.023,102.0,112.0,99.0,13.4,1505.3,323.2,-0.7,1.8,2470.369,13.32,0.064,79.2
2019-12-26T05:19:03,42.805,6.029,0.03,0.001,-0.007,103.0,111.0,100.0,13.3,1505.3,324.5,-0.7,1.8,2470.353,13.32,0.03,88.1
2019-12-26T05:22:03,42.805,6.029,0.007,0.02,0.006,101.0,111.0,100.0,13.4,1505.3,326.3,-0.7,1.8,2470.355,13.32,0.021,19.3
2019-12-26T05:25:03,42.805,6.029,-0.004,0.002,-0.026,101.0,111.0,100.0,13.4,1505.3,326.7,-0.7,1.8,2470.379,13.32,0.004,296.6
2019-12-26T05:28:03,42.805,6.029,-0.002,0.019,0.0,101.0,112.0,100.0,13.3,1505.3,324.5,-0.7,1.8,2470.385,13.32,0.019,354.0
2019-12-26T05:31:03,42.805,6.029,0.034,-0.018,0.019,102.0,112.0,99.0,13.3,1505.3,327.4,-0.8,1.8,2470.418,13.32,0.038,117.9
2019-12-26T05:34:03,42.805,6.029,0.042,-0.004,-0.002,102.0,109.0,100.0,13.3,1505.3,327.8,-0.7,1.8,2470.348,13.32,0.042,95.4
2019-12-26T05:37:03,42.805,6.029,-0.003,0.007,-0.033,103.0,109.0,100.0,13.4,1505.3,324.5,-0.7,1.9,2470.386,13.32,0.007,336.8
2019-12-26T05:40:03,42.805,6.029,0.02,0.008,-0.014,103.0,111.0,101.0,13.4,1505.3,326.0,-0.7,1.8,2470.371,13.32,0.021,68.2
2019-12-26T05:43:03,42.805,6.029,0.028,0.001,0.036,101.0,111.0,99.0,13.4,1505.3,325.1,-0.7,1.8,2470.383,13.32,0.028,88.0
2019-12-26T05:46:03,42.805,6.029,0.035,0.0,-0.009,104.0,110.0,100.0,13.3,1505.3,328.1,-0.7,1.9,2470.38,13.32,0.035,90.0
2019-12-26T05:49:03,42.805,6.029,0.033,0.012,0.005,102.0,111.0,99.0,13.3,1505.3,324.8,-0.7,1.8,2470.374,13.32,0.035,70.0
2019-12-26T05:52:03,42.805,6.029,0.019,0.028,-0.029,103.0,111.0,98.0,13.4,1505.3,326.5,-0.7,1.9,2470.385,13.32,0.033,34.2
2019-12-26T05:55:03,42.805,6.029,0.011,0.0,-0.022,102.0,107.0,100.0,13.4,1505.3,324.9,-0.7,1.8,2470.37,13.32,0.011,90.0
2019-12-26T05:58:03,42.805,6.029,0.031,0.002,-0.005,101.0,109.0,99.0,13.4,1505.3,323.3,-0.7,1.8,2470.371,13.32,0.031,86.3
2019-12-26T06:04:03,42.805,6.029,0.068,0.002,0.03,102.0,109.0,98.0,13.3,1505.2,323.1,-0.8,1.8,2470.45,13.3,0.068,88.3
2019-12-26T06:07:03,42.805,6.029,0.006,-0.003,-0.032,100.0,109.0,99.0,13.4,1505.3,324.6,-0.7,1.8,2470.435,13.31,0.006,116.6
2019-12-26T06:10:03,42.805,6.029,0.032,0.028,-0.003,101.0,110.0,100.0,13.3,1505.3,326.9,-0.8,1.9,2470.382,13.32,0.042,48.8
2019-12-26T06:13:03,42.805,6.029,0.026,0.01,-0.005,100.0,107.0,101.0,13.3,1505.3,324.9,-0.7,1.8,2470.424,13.32,0.027,69.0
2019-12-26T06:16:03,42.805,6.029,0.044,0.01,-0.018,102.0,109.0,98.0,13.4,1505.3,327.7,-0.7,1.8,2470.442,13.32,0.045,77.2
2019-12-26T06:19:03,42.805,6.029,0.032,0.0,-0.012,102.0,110.0,99.0,13.4,1505.3,328.4,-0.7,1.9,2470.455,13.32,0.032,90.0
2019-12-26T06:22:03,42.805,6.029,0.025,0.019,-0.027,102.0,108.0,99.0,13.4,1505.3,324.5,-0.7,1.8,2470.397,13.32,0.031,52.8
2019-12-26T06:25:03,42.805,6.029,0.022,-0.014,-0.022,104.0,109.0,99.0,13.4,1505.3,323.8,-0.7,1.8,2470.413,13.32,0.026,122.5
2019-12-26T06:28:03,42.805,6.029,0.034,-0.011,0.02,102.0,107.0,101.0,13.4,1505.3,323.5,-0.7,1.9,2470.434,13.32,0.035,107.9
2019-12-26T06:31:03,42.805,6.029,0.024,0.002,-0.064,103.0,109.0,99.0,13.3,1505.3,326.7,-0.7,1.9,2470.438,13.32,0.024,85.2
2019-12-26T06:34:03,42.805,6.029,0.03,0.014,0.023,103.0,106.0,100.0,13.4,1505.3,325.4,-0.7,1.8,2470.41,13.32,0.033,65.0
2019-12-26T06:37:03,42.805,6.029,0.004,0.013,0.0,102.0,108.0,100.0,13.4,1505.3,323.6,-0.7,1.8,2470.431,13.32,0.013,17.1
2019-12-26T06:40:03,42.805,6.029,0.042,-0.011,-0.002,104.0,108.0,99.0,13.4,1505.3,325.9,-0.7,1.8,2470.405,13.32,0.043,104.7
2019-12-26T06:43:03,42.805,6.029,0.046,0.013,-0.008,102.0,107.0,100.0,13.4,1505.3,325.4,-0.7,1.9,2470.387,13.32,0.047,74.2
2019-12-26T06:46:03,42.805,6.029,0.028,-0.007,0.002,103.0,109.0,100.0,13.4,1505.3,326.0,-0.7,1.8,2470.421,13.32,0.028,104.0
2019-12-26T06:49:03,42.805,6.029,0.033,0.006,0.029,103.0,109.0,100.0,13.3,1505.3,323.5,-0.7,1.8,2470.389,13.32,0.033,79.7
2019-12-26T06:52:03,42.805,6.029,0.037,0.001,0.0,103.0,108.0,99.0,13.3,1505.3,324.4,-0.7,1.8,2470.431,13.32,0.037,88.5
2019-12-26T06:55:03,42.805,6.029,0.0,0.003,-0.007,103.0,110.0,100.0,13.4,1505.3,328.2,-0.7,1.8,2470.431,13.32,0.003,0.0
2019-12-26T06:58:03,42.805,6.029,0.019,0.018,0.025,102.0,107.0,99.0,13.4,1505.3,325.0,-0.7,1.8,2470.445,13.32,0.026,46.5
2019-12-26T07:04:03,42.805,6.029,0.031,-0.006,-0.014,102.0,107.0,99.0,13.4,1505.2,325.5,-0.7,1.8,2470.411,13.3,0.031,101.0
2019-12-26T07:07:03,42.805,6.029,0.059,0.002,0.028,102.0,106.0,99.0,13.3,1505.3,326.8,-0.7,1.8,2470.467,13.31,0.059,88.1
2019-12-26T07:10:03,42.805,6.029,0.056,0.001,-0.005,102.0,107.0,100.0,13.4,1505.3,326.5,-0.7,1.8,2470.428,13.32,0.056,89.0
2019-12-26T07:13:03,42.805,6.029,0.037,-0.004,0.008,102.0,105.0,100.0,13.4,1505.3,326.6,-0.7,1.8,2470.454,13.32,0.037,96.2
2019-12-26T07:16:03,42.805,6.029,0.049,-0.008,-0.024,102.0,106.0,100.0,13.4,1505.3,326.3,-0.7,1.8,2470.446,13.32,0.049,99.3
2019-12-26T07:19:03,42.805,6.029,0.029,0.0,-0.007,102.0,105.0,100.0,13.4,1505.3,327.4,-0.7,1.8,2470.435,13.32,0.028,90.0
2019-12-26T07:22:03,42.805,6.029,0.045,0.023,-0.035,103.0,106.0,99.0,13.4,1505.3,325.7,-0.7,1.8,2470.401,13.32,0.05,62.9
2019-12-26T07:25:03,42.805,6.029,0.046,0.0,0.027,102.0,106.0,99.0,13.4,1505.3,325.6,-0.7,1.8,2470.429,13.32,0.046,90.0
2019-12-26T07:28:03,42.805,6.029,0.042,0.003,-0.027,103.0,106.0,98.0,13.3,1505.3,326.4,-0.7,1.8,2470.452,13.32,0.042,85.9
2019-12-26T07:31:03,42.805,6.029,0.018,0.005,-0.013,101.0,106.0,99.0,13.4,1505.3,326.4,-0.7,1.8,2470.496,13.32,0.018,74.5
2019-12-26T07:34:03,42.805,6.029,0.017,-0.015,-0.022,101.0,106.0,100.0,13.4,1505.3,325.5,-0.7,1.8,2470.467,13.32,0.022,131.4
2019-12-26T07:37:03,42.805,6.029,0.051,-0.007,-0.022,101.0,108.0,99.0,13.4,1505.3,328.0,-0.7,1.8,2470.418,13.32,0.051,97.8
2019-12-26T07:43:03,42.805,6.029,0.023,-0.004,-0.023,102.0,106.0,99.0,13.3,1505.2,328.3,-0.8,1.8,2470.47,13.3,0.023,99.9
2019-12-26T07:46:03,42.805,6.029,0.042,-0.003,-0.008,100.0,106.0,99.0,13.3,1505.3,326.8,-0.7,1.9,2470.509,13.31,0.042,94.1
2019-12-26T07:49:03,42.805,6.029,0.015,0.0,-0.026,102.0,107.0,98.0,13.3,1505.3,327.9,-0.7,1.8,2470.441,13.31,0.015,90.0
2019-12-26T07:55:03,42.805,6.029,0.043,-0.002,0.045,102.0,106.0,99.0,13.3,1505.2,325.6,-0.7,1.8,2470.475,13.3,0.043,92.7
2019-12-26T07:58:03,42.805,6.029,0.03,0.031,0.0,102.0,107.0,99.0,13.4,1505.3,323.6,-0.7,1.8,2470.499,13.31,0.043,44.1
2019-12-26T08:04:03,42.805,6.029,0.048,-0.005,-0.001,103.0,105.0,100.0,13.3,1505.2,326.6,-0.7,1.8,2470.507,13.3,0.048,95.9
2019-12-26T08:07:03,42.805,6.029,0.027,0.017,-0.028,102.0,109.0,99.0,13.4,1505.3,326.7,-0.7,1.9,2470.447,13.31,0.031,57.8
2019-12-26T08:10:03,42.805,6.029,0.016,-0.023,-0.035,101.0,105.0,100.0,13.4,1505.3,326.4,-0.7,1.8,2470.471,13.31,0.028,145.2
2019-12-26T08:13:03,42.805,6.029,0.042,0.007,0.007,102.0,107.0,101.0,13.4,1505.3,326.0,-0.7,1.8,2470.492,13.32,0.042,80.5
2019-12-26T08:16:03,42.805,6.029,0.039,-0.008,-0.005,103.0,107.0,99.0,13.3,1505.3,325.8,-0.7,1.9,2470.455,13.32,0.039,101.6
2019-12-26T08:19:03,42.805,6.029,0.06,-0.014,-0.029,103.0,106.0,99.0,13.4,1505.3,325.2,-0.7,1.8,2470.445,13.32,0.061,103.1
2019-12-26T08:22:03,42.805,6.029,0.03,-0.015,0.003,104.0,106.0,100.0,13.4,1505.3,328.6,-0.7,1.8,2470.438,13.32,0.033,116.6
2019-12-26T08:25:03,42.805,6.029,0.058,-0.014,-0.012,101.0,106.0,100.0,13.4,1505.3,325.8,-0.7,1.8,2470.45,13.32,0.059,103.6
2019-12-26T08:28:03,42.805,6.029,0.035,0.003,-0.038,101.0,104.0,100.0,13.4,1505.3,324.4,-0.8,1.8,2470.457,13.32,0.035,85.1
2019-12-26T08:31:03,42.805,6.029,0.053,-0.02,0.002,101.0,105.0,100.0,13.4,1505.3,326.2,-0.7,1.8,2470.467,13.32,0.056,110.7
2019-12-26T08:34:03,42.805,6.029,0.064,0.012,-0.009,102.0,106.0,100.0,13.3,1505.3,326.8,-0.7,1.9,2470.437,13.32,0.065,79.4
2019-12-26T08:37:03,42.805,6.029,0.033,-0.022,-0.021,102.0,107.0,99.0,13.4,1505.3,327.1,-0.7,1.8,2470.448,13.32,0.039,123.7
2019-12-26T08:40:03,42.805,6.029,0.026,-0.021,-0.002,101.0,105.0,100.0,13.4,1505.3,327.0,-0.7,1.8,2470.447,13.32,0.033,128.9
2019-12-26T08:43:03,42.805,6.029,0.074,-0.039,0.022,102.0,105.0,99.0,13.4,1505.3,327.4,-0.7,1.8,2470.442,13.32,0.083,117.8
2019-12-26T08:46:03,42.805,6.029,0.047,-0.028,0.015,102.0,108.0,100.0,13.4,1505.3,328.6,-0.7,1.8,2470.43,13.32,0.054,120.8
2019-12-26T08:49:03,42.805,6.029,0.056,0.013,0.065,102.0,107.0,99.0,13.4,1505.3,326.0,-0.7,1.8,2470.414,13.32,0.057,76.9
2019-12-26T08:52:03,42.805,6.029,0.026,-0.017,-0.038,103.0,105.0,99.0,13.4,1505.3,324.0,-0.7,1.8,2470.436,13.32,0.031,123.2
2019-12-26T08:55:03,42.805,6.029,0.037,-0.029,0.004,101.0,107.0,100.0,13.4,1505.3,325.0,-0.7,1.8,2470.417,13.32,0.047,128.1
2019-12-26T08:58:03,42.805,6.029,0.03,-0.012,-0.047,103.0,106.0,99.0,13.4,1505.3,325.4,-0.7,1.9,2470.446,13.32,0.032,111.8
2019-12-26T09:04:03,42.805,6.029,0.049,-0.016,0.025,102.0,106.0,99.0,13.4,1505.2,324.6,-0.7,1.8,2470.431,13.3,0.051,108.1
2019-12-26T09:07:03,42.805,6.029,0.071,0.0,0.025,102.0,106.0,100.0,13.4,1505.3,325.1,-0.7,1.8,2470.459,13.31,0.07,90.0
2019-12-26T09:10:03,42.805,6.029,0.007,-0.022,0.001,103.0,107.0,99.0,13.4,1505.3,324.3,-0.7,1.8,2470.424,13.32,0.023,162.4
2019-12-26T09:13:03,42.805,6.029,0.04,-0.032,0.01,102.0,106.0,99.0,13.4,1505.3,325.4,-0.7,1.8,2470.437,13.32,0.051,128.7
2019-12-26T09:16:03,42.805,6.029,0.035,-0.003,-0.019,103.0,104.0,99.0,13.3,1505.3,327.1,-0.7,1.9,2470.44,13.32,0.035,94.9
2019-12-26T09:19:03,42.805,6.029,0.035,-0.021,0.031,102.0,104.0,100.0,13.3,1505.3,324.3,-0.7,1.9,2470.394,13.32,0.04,121.0
2019-12-26T09:22:03,42.805,6.029,0.034,-0.015,-0.002,102.0,105.0,99.0,13.4,1505.3,325.0,-0.7,1.8,2470.402,13.32,0.037,113.8
2019-12-26T09:25:03,42.805,6.029,0.018,-0.003,0.0,103.0,104.0,98.0,13.3,1505.3,324.3,-0.7,1.8,2470.421,13.32,0.018,99.5
2019-12-26T09:28:03,42.805,6.029,0.04,-0.021,-0.003,102.0,104.0,99.0,13.4,1505.3,324.2,-0.7,1.8,2470.429,13.32,0.045,117.7
2019-12-26T09:31:03,42.805,6.029,0.025,-0.02,0.018,102.0,103.0,100.0,13.4,1505.3,327.2,-0.7,1.8,2470.447,13.32,0.032,128.7
2019-12-26T09:34:03,42.805,6.029,0.032,-0.04,-0.006,102.0,104.0,100.0,13.3,1505.3,323.7,-0.7,1.8,2470.412,13.32,0.051,141.3
2019-12-26T09:37:03,42.805,6.029,0.018,-0.01,-0.02,102.0,106.0,98.0,13.3,1505.3,325.9,-0.7,1.8,2470.417,13.32,0.02,119.1
2019-12-26T09:40:03,42.805,6.029,-0.01,-0.019,-0.065,101.0,106.0,98.0,13.3,1505.3,325.7,-0.7,1.8,2470.434,13.32,0.021,207.8
2019-12-26T09:43:03,42.805,6.029,0.015,-0.014,0.001,102.0,104.0,99.0,13.3,1505.3,327.6,-0.7,1.8,2470.362,13.32,0.02,133.0
2019-12-26T09:46:03,42.805,6.029,0.036,-0.004,0.001,102.0,105.0,99.0,13.3,1505.3,324.7,-0.7,1.8,2470.408,13.32,0.036,96.3
2019-12-26T09:49:03,42.805,6.029,0.036,-0.027,-0.019,103.0,104.0,98.0,13.4,1505.3,326.9,-0.7,1.8,2470.423,13.32,0.045,126.9
2019-12-26T09:55:03,42.805,6.029,0.033,-0.041,-0.007,102.0,105.0,99.0,13.3,1505.2,326.8,-0.8,1.8,2470.444,13.3,0.052,141.2
2019-12-26T09:58:03,42.805,6.029,0.024,-0.028,0.001,101.0,105.0,98.0,13.4,1505.3,327.8,-0.7,1.8,2470.435,13.31,0.036,139.4
2019-12-26T10:04:03,42.805,6.029,0.02,-0.015,-0.017,100.0,106.0,99.0,13.3,1505.2,328.4,-0.7,1.8,2470.451,13.3,0.025,126.9
2019-12-26T10:07:03,42.805,6.029,0.041,-0.003,-0.003,102.0,103.0,99.0,13.4,1505.3,327.2,-0.8,1.8,2470.424,13.31,0.041,94.2
2019-12-26T10:10:03,42.805,6.029,0.07,-0.015,0.018,101.0,103.0,99.0,13.3,1505.3,328.1,-0.7,1.8,2470.446,13.31,0.071,102.1
2019-12-26T10:13:03,42.805,6.029,0.034,-0.046,0.004,101.0,101.0,99.0,13.4,1505.3,328.0,-0.7,1.8,2470.399,13.32,0.057,143.5
2019-12-26T10:16:03,42.805,6.029,0.036,-0.013,0.018,100.0,104.0,98.0,13.4,1505.3,325.4,-0.7,1.9,2470.422,13.32,0.038,109.9
2019-12-26T10:19:03,42.805,6.029,0.024,-0.032,-0.023,101.0,105.0,98.0,13.4,1505.3,323.5,-0.7,1.8,2470.435,13.32,0.04,143.1
2019-12-26T10:22:03,42.805,6.029,0.015,-0.028,-0.039,101.0,104.0,99.0,13.4,1505.3,324.8,-0.7,1.8,2470.395,13.32,0.031,151.8